Location: Boda
(47.1872°N, 9.5454°E)
Time: 18:43:11
(UTC+00:00)

BREEZE-M DEB (TANK) - Pass Details

Date: 14 May 2021
Orbit: 329 x 12032 km, 49.6° (Epoch: 15 June)

Event Time Altitude Azimuth Distance (km) Brightness Sun altitude
Exits shadow 00:31:49 31° 144° (SE) 1,421 3.9 -22.1°
Maximum altitude 00:32:40 32° 124° (SE) 1,518 4.1 -22.1°
Drops below altitude 10° 00:41:30 10° 66° (ENE) 4,806 7.5 -21.6°
Sets 00:48:42 0° 61° (ENE) 7,563 8.7 -21.1°
